sat.trackr.live / text

‹ back to catalog

STARLINK-35424

NORAD 66460 · 2025-262E

PAYLOAD ACTIVE UNKNOWN

§ Identity

Operator
Country
US
Launch date
2025-11-15
Launch site
AFETR
Launch vehicle
Mass (kg)
RCS (m²)

Purposes: comms

External: N2YO · Heavens-Above · Gunter

§ Orbital elements

Epoch: 2026-09-20T07:35:51.648000Z

Period
94.27 min
Inclination
42.9984°
Eccentricity
0.0001774
Mean motion
15.27568135 rev/d
Perigee alt
481.9 km
Apogee alt
484.3 km
Semi-major
6,861.2 km
B*
3.5441e-4
RAAN
276.8850°
Arg perigee
272.0765°
Mean anomaly
87.9883°
Rev number
4,867

§ Raw data

STARLINK-354241 66460U 25262E   26263.31657000  .00009500  00000+0  35441-3 0  99932 66460  42.9984 276.8850 0001774 272.0765  87.9883 15.27568135 48675

JSON: /api/v1/satellites/66460 · /tle

For live sub-satellite position, see the globe view (requires WebGL).

§ Visibility from observer

Set your observer location to see the next 7 days of passes ≥ 10°. The values pass through the URL so the page stays shareable.

No JS? Fill the form by hand. The geolocation button needs JavaScript.